| time (UTC) | temp F | wind direction | speed MPH | gust MPH | rain 1hr in | rain 24hr in | rain mn in | humidity % | barometer mb |
| 20260507172025 | 68 | 265 | 2.0 | 6.0 | 0.00 | 0.00 | 0.00 | 74 | 1016.2 |
| 20260507171526 | 68 | 250 | 2.0 | 6.0 | 0.00 | 0.00 | 0.00 | 74 | 1016.2 |
| 20260507171029 | 68 | 252 | 3.0 | 6.0 | 0.00 | 0.00 | 0.00 | 74 | 1016.3 |
| 20260507170532 | 68 | 271 | 2.0 | 7.0 | 0.00 | 0.00 | 0.00 | 74 | 1016.3 |
| 20260507170025 | 68 | 252 | 2.0 | 7.0 | 0.00 | 0.00 | 0.00 | 73 | 1016.3 |
| 20260507165550 | 69 | 284 | 3.0 | 6.0 | 0.00 | 0.00 | 0.00 | 72 | 1016.3 |
| 20260507165027 | 69 | 277 | 2.0 | 6.0 | 0.00 | 0.00 | 0.00 | 71 | 1016.3 |
| 20260507164526 | 70 | 281 | 3.0 | 5.0 | 0.00 | 0.00 | 0.00 | 71 | 1016.3 |
| 20260507164030 | 70 | 286 | 1.0 | 5.0 | 0.00 | 0.00 | 0.00 | 72 | 1016.3 |
| 20260507163530 | 69 | 239 | 2.0 | 3.0 | 0.00 | 0.00 | 0.00 | 74 | 1016.4 |
| 20260507163030 | 68 | 247 | 1.0 | 3.0 | 0.00 | 0.00 | 0.00 | 77 | 1016.5 |
| 20260507162517 | 67 | 248 | 1.0 | 4.0 | 0.00 | 0.00 | 0.00 | 78 | 1016.5 |
| 20260507162022 | 66 | 250 | 0.0 | 4.0 | 0.00 | 0.00 | 0.00 | 80 | 1016.4 |
| 20260507161519 | 65 | 250 | 2.0 | 4.0 | 0.00 | 0.00 | 0.00 | 81 | 1016.3 |
| 20260507161019 | 64 | 250 | 2.0 | 4.0 | 0.00 | 0.00 | 0.00 | 82 | 1016.4 |
| 20260507160520 | 64 | 250 | 1.0 | 3.0 | 0.00 | 0.00 | 0.00 | 83 | 1016.4 |
| 20260507160048 | 64 | 250 | 1.0 | 3.0 | 0.00 | 0.00 | 0.00 | 83 | 1016.4 |
| 20260507155528 | 64 | 250 | 1.0 | 5.0 | 0.00 | 0.00 | 0.00 | 83 | 1016.5 |
| 20260507155030 | 64 | 250 | 2.0 | 5.0 | 0.00 | 0.00 | 0.00 | 83 | 1016.5 |
| 20260507154557 | 64 | 259 | 1.0 | 5.0 | 0.00 | 0.00 | 0.00 | 84 | 1016.5 |
| 20260507154039 | 64 | 238 | 1.0 | 5.0 | 0.00 | 0.00 | 0.00 | 84 | 1016.5 |
| 20260507153521 | 64 | 292 | 1.0 | 4.0 | 0.00 | 0.00 | 0.00 | 84 | 1016.5 |
| 20260507153026 | 64 | 292 | 1.0 | 5.0 | 0.00 | 0.00 | 0.00 | 84 | 1016.5 |
| 20260507152557 | 64 | 301 | 2.0 | 5.0 | 0.00 | 0.00 | 0.00 | 83 | 1016.5 |
| 20260507152019 | 64 | 265 | 2.0 | 5.0 | 0.00 | 0.00 | 0.00 | 83 | 1016.4 |
| 20260507151521 | 64 | 284 | 2.0 | 5.0 | 0.00 | 0.00 | 0.00 | 82 | 1016.5 |
| 20260507151023 | 64 | 306 | 1.0 | 4.0 | 0.00 | 0.00 | 0.00 | 81 | 1016.5 |
| 20260507150528 | 64 | 69 | 0.0 | 2.0 | 0.00 | 0.00 | 0.00 | 82 | 1016.4 |
| 20260507150028 | 63 | 69 | 1.0 | 2.0 | 0.00 | 0.00 | 0.00 | 82 | 1016.3 |
| 20260507145557 | 63 | 69 | 1.0 | 3.0 | 0.00 | 0.00 | 0.00 | 81 | 1016.4 |
| 20260507145022 | 62 | 69 | 1.0 | 3.0 | 0.00 | 0.00 | 0.00 | 81 | 1016.3 |
| 20260507144528 | 62 | 68 | 1.0 | 3.0 | 0.00 | 0.00 | 0.00 | 82 | 1016.4 |
| 20260507144034 | 61 | 69 | 1.0 | 3.0 | 0.00 | 0.00 | 0.00 | 84 | 1016.4 |
| 20260507143520 | 60 | 68 | 1.0 | 4.0 | 0.00 | 0.00 | 0.00 | 85 | 1016.3 |
| 20260507143023 | 60 | 76 | 2.0 | 4.0 | 0.00 | 0.00 | 0.00 | 85 | 1016.2 |
| 20260507142524 | 59 | 86 | 1.0 | 5.0 | 0.00 | 0.00 | 0.00 | 86 | 1016.1 |
| 20260507142052 | 59 | 86 | 1.0 | 5.0 | 0.00 | 0.00 | 0.00 | 87 | 1016.0 |
| 20260507141528 | 58 | 86 | 3.0 | 5.0 | 0.00 | 0.00 | 0.00 | 88 | 1016.0 |
| 20260507141049 | 58 | 63 | 1.0 | 4.0 | 0.00 | 0.00 | 0.00 | 88 | 1016.0 |
| 20260507140529 | 57 | 68 | 2.0 | 4.0 | 0.00 | 0.00 | 0.00 | 89 | 1016.0 |
| 20260507140033 | 57 | 63 | 2.0 | 3.0 | 0.00 | 0.00 | 0.00 | 89 | 1016.0 |
| 20260507135556 | 56 | 65 | 2.0 | 4.0 | 0.00 | 0.00 | 0.00 | 89 | 1015.9 |
| 20260507135035 | 56 | 65 | 3.0 | 4.0 | 0.00 | 0.00 | 0.00 | 89 | 1016.0 |
| 20260507134521 | 56 | 64 | 1.0 | 3.0 | 0.00 | 0.00 | 0.00 | 90 | 1015.9 |
| 20260507134026 | 56 | 64 | 2.0 | 3.0 | 0.00 | 0.00 | 0.00 | 90 | 1015.9 |
| 20260507133528 | 55 | 64 | 1.0 | 2.0 | 0.00 | 0.00 | 0.00 | 91 | 1015.8 |
| 20260507133053 | 55 | 64 | 1.0 | 3.0 | 0.00 | 0.00 | 0.00 | 91 | 1015.8 |
| 20260507132553 | 55 | 64 | 2.0 | 3.0 | 0.00 | 0.00 | 0.00 | 91 | 1015.7 |
| 20260507132035 | 54 | 64 | 1.0 | 3.0 | 0.00 | 0.00 | 0.00 | 91 | 1015.7 |
| 20260507131540 | 54 | 64 | 1.0 | 3.0 | 0.00 | 0.00 | 0.00 | 91 | 1015.7 |
| 20260507131046 | 54 | 64 | 2.0 | 2.0 | 0.00 | 0.00 | 0.00 | 91 | 1015.7 |
| 20260507130527 | 54 | 64 | 1.0 | 2.0 | 0.00 | 0.00 | 0.00 | 91 | 1015.6 |
| 20260507130033 | 54 | 64 | 1.0 | 2.0 | 0.00 | 0.00 | 0.00 | 91 | 1015.6 |
| 20260507125520 | 54 | 64 | 1.0 | 3.0 | 0.00 | 0.00 | 0.00 | 91 | 1015.5 |
| 20260507125026 | 54 | 64 | 1.0 | 3.0 | 0.00 | 0.00 | 0.00 | 91 | 1015.5 |
| 20260507124533 | 54 | 64 | 1.0 | 2.0 | 0.00 | 0.00 | 0.00 | 91 | 1015.5 |
| 20260507124059 | 54 | 64 | 0.0 | 3.0 | 0.00 | 0.00 | 0.00 | 90 | 1015.4 |
| 20260507123524 | 54 | 64 | 1.0 | 3.0 | 0.00 | 0.00 | 0.00 | 90 | 1015.4 |
| 20260507123048 | 54 | 64 | 0.0 | 2.0 | 0.00 | 0.00 | 0.00 | 90 | 1015.4 |
| 20260507122538 | 55 | 64 | 0.0 | 3.0 | 0.00 | 0.00 | 0.00 | 90 | 1015.4 |
| 20260507122026 | 55 | 64 | 1.0 | 3.0 | 0.00 | 0.00 | 0.00 | 90 | 1015.4 |
| 20260507121529 | 55 | 64 | 1.0 | 3.0 | 0.00 | 0.00 | 0.00 | 90 | 1015.4 |
| 20260507121034 | 55 | 64 | 1.0 | 3.0 | 0.00 | 0.00 | 0.00 | 91 | 1015.3 |
| 20260507120518 | 55 | 64 | 1.0 | 3.0 | 0.00 | 0.00 | 0.00 | 91 | 1015.4 |
| 20260507120024 | 55 | 64 | 1.0 | 4.0 | 0.00 | 0.00 | 0.00 | 91 | 1015.3 |
| 20260507115549 | 55 | 64 | 2.0 | 4.0 | 0.00 | 0.00 | 0.00 | 91 | 1015.3 |
| 20260507115028 | 55 | 64 | 2.0 | 4.0 | 0.00 | 0.00 | 0.00 | 91 | 1015.4 |
| 20260507114531 | 55 | 63 | 2.0 | 4.0 | 0.00 | 0.00 | 0.00 | 90 | 1015.3 |
| 20260507114041 | 55 | 63 | 2.0 | 4.0 | 0.00 | 0.00 | 0.00 | 91 | 1015.3 |
| 20260507113524 | 55 | 56 | 1.0 | 3.0 | 0.00 | 0.00 | 0.00 | 91 | 1015.4 |
| 20260507113030 | 55 | 56 | 1.0 | 3.0 | 0.00 | 0.00 | 0.00 | 91 | 1015.3 |
| 20260507112535 | 55 | 56 | 2.0 | 3.0 | 0.00 | 0.00 | 0.00 | 91 | 1015.3 |
| 20260507112053 | 55 | 56 | 1.0 | 3.0 | 0.00 | 0.00 | 0.00 | 91 | 1015.4 |
| 20260507111538 | 55 | 56 | 2.0 | 3.0 | 0.00 | 0.00 | 0.00 | 91 | 1015.4 |
| 20260507111022 | 55 | 55 | 1.0 | 3.0 | 0.00 | 0.00 | 0.00 | 91 | 1015.6 |
| 20260507110526 | 55 | 55 | 1.0 | 3.0 | 0.00 | 0.00 | 0.00 | 91 | 1015.5 |
| 20260507110028 | 55 | 55 | 1.0 | 4.0 | 0.00 | 0.00 | 0.00 | 91 | 1015.5 |
| 20260507105532 | 55 | 55 | 2.0 | 4.0 | 0.00 | 0.00 | 0.00 | 90 | 1015.6 |
| 20260507105038 | 55 | 55 | 1.0 | 3.0 | 0.00 | 0.00 | 0.00 | 90 | 1015.6 |
| 20260507104522 | 56 | 55 | 2.0 | 3.0 | 0.00 | 0.00 | 0.00 | 90 | 1015.6 |
| 20260507104027 | 56 | 55 | 2.0 | 3.0 | 0.00 | 0.00 | 0.00 | 90 | 1015.7 |
| 20260507103523 | 56 | 55 | 2.0 | 3.0 | 0.00 | 0.00 | 0.00 | 90 | 1015.6 |
| 20260507103026 | 56 | 55 | 1.0 | 3.0 | 0.00 | 0.00 | 0.00 | 90 | 1015.7 |
| 20260507102555 | 56 | 55 | 1.0 | 3.0 | 0.00 | 0.00 | 0.00 | 91 | 1015.7 |
| 20260507102031 | 56 | 55 | 1.0 | 3.0 | 0.00 | 0.00 | 0.00 | 90 | 1015.8 |
| 20260507101539 | 56 | 55 | 2.0 | 3.0 | 0.00 | 0.00 | 0.00 | 90 | 1015.8 |
| 20260507101038 | 56 | 55 | 2.0 | 3.0 | 0.00 | 0.00 | 0.00 | 90 | 1015.8 |
| 20260507100539 | 56 | 55 | 2.0 | 3.0 | 0.00 | 0.00 | 0.00 | 90 | 1015.8 |
| 20260507100026 | 56 | 55 | 1.0 | 3.0 | 0.00 | 0.00 | 0.00 | 90 | 1015.8 |
| 20260507095531 | 56 | 55 | 2.0 | 3.0 | 0.00 | 0.00 | 0.00 | 90 | 1015.9 |
| 20260507095037 | 56 | 55 | 1.0 | 3.0 | 0.00 | 0.00 | 0.00 | 90 | 1015.9 |
| 20260507094518 | 56 | 55 | 2.0 | 4.0 | 0.00 | 0.00 | 0.00 | 90 | 1016.0 |
| 20260507094023 | 57 | 55 | 2.0 | 4.0 | 0.00 | 0.00 | 0.00 | 90 | 1015.9 |
| 20260507093527 | 57 | 55 | 1.0 | 4.0 | 0.00 | 0.00 | 0.00 | 90 | 1016.0 |
| 20260507093029 | 57 | 55 | 2.0 | 4.0 | 0.00 | 0.00 | 0.00 | 90 | 1016.0 |
| 20260507092539 | 57 | 44 | 2.0 | 4.0 | 0.00 | 0.00 | 0.00 | 90 | 1016.1 |
| 20260507092020 | 57 | 43 | 2.0 | 3.0 | 0.00 | 0.00 | 0.00 | 90 | 1016.1 |
| 20260507091520 | 57 | 44 | 1.0 | 3.0 | 0.00 | 0.00 | 0.00 | 90 | 1016.0 |
| 20260507091024 | 57 | 44 | 1.0 | 3.0 | 0.00 | 0.00 | 0.00 | 90 | 1016.1 |
| 20260507090532 | 57 | 44 | 1.0 | 3.0 | 0.00 | 0.00 | 0.00 | 89 | 1016.1 |
| 20260507090039 | 57 | 44 | 2.0 | 3.0 | 0.00 | 0.00 | 0.00 | 89 | 1016.2 |
| 20260507085558 | 57 | 44 | 2.0 | 4.0 | 0.00 | 0.00 | 0.00 | 89 | 1016.2 |
| 20260507085019 | 58 | 44 | 2.0 | 4.0 | 0.00 | 0.00 | 0.00 | 89 | 1016.3 |
| 20260507084523 | 58 | 42 | 2.0 | 3.0 | 0.00 | 0.00 | 0.00 | 89 | 1016.3 |
| 20260507084047 | 58 | 22 | 2.0 | 3.0 | 0.00 | 0.00 | 0.00 | 89 | 1016.3 |
| 20260507083532 | 58 | 22 | 1.0 | 3.0 | 0.00 | 0.00 | 0.00 | 89 | 1016.3 |
| 20260507083034 | 58 | 22 | 1.0 | 4.0 | 0.00 | 0.00 | 0.00 | 89 | 1016.4 |
| 20260507082535 | 58 | 22 | 2.0 | 4.0 | 0.00 | 0.00 | 0.00 | 89 | 1016.5 |
| 20260507082042 | 58 | 14 | 0.0 | 3.0 | 0.00 | 0.00 | 0.00 | 89 | 1016.5 |
| 20260507081519 | 58 | 14 | 1.0 | 3.0 | 0.00 | 0.00 | 0.00 | 89 | 1016.4 |
| 20260507081044 | 58 | 14 | 1.0 | 3.0 | 0.00 | 0.00 | 0.00 | 89 | 1016.6 |
| 20260507080528 | 58 | 14 | 1.0 | 2.0 | 0.00 | 0.00 | 0.00 | 89 | 1016.5 |
| 20260507080033 | 58 | 14 | 0.0 | 2.0 | 0.00 | 0.00 | 0.00 | 89 | 1016.6 |
| 20260507075519 | 58 | 14 | 1.0 | 2.0 | 0.00 | 0.00 | 0.00 | 89 | 1016.6 |
| 20260507075022 | 58 | 14 | 1.0 | 2.0 | 0.00 | 0.00 | 0.00 | 89 | 1016.6 |
| 20260507074525 | 58 | 14 | 0.0 | 2.0 | 0.00 | 0.00 | 0.00 | 88 | 1016.6 |
| 20260507074027 | 58 | 14 | 1.0 | 2.0 | 0.00 | 0.00 | 0.00 | 88 | 1016.7 |
| 20260507073527 | 58 | 14 | 1.0 | 3.0 | 0.00 | 0.00 | 0.00 | 88 | 1016.7 |
| 20260507073024 | 59 | 14 | 2.0 | 3.0 | 0.00 | 0.00 | 0.00 | 88 | 1016.7 |
| 20260507072526 | 59 | 14 | 2.0 | 3.0 | 0.00 | 0.00 | 0.00 | 88 | 1016.6 |
| 20260507072037 | 59 | 355 | 1.0 | 2.0 | 0.00 | 0.00 | 0.00 | 87 | 1016.7 |
| 20260507071529 | 59 | 355 | 1.0 | 2.0 | 0.00 | 0.00 | 0.00 | 87 | 1016.7 |
| 20260507071031 | 59 | 355 | 1.0 | 3.0 | 0.00 | 0.00 | 0.00 | 87 | 1016.8 |
| 20260507070533 | 59 | 355 | 1.0 | 3.0 | 0.00 | 0.00 | 0.00 | 86 | 1016.8 |
| 20260507070022 | 59 | 355 | 1.0 | 3.0 | 0.00 | 0.00 | 0.00 | 86 | 1016.8 |
| 20260507065545 | 60 | 311 | 1.0 | 2.0 | 0.00 | 0.00 | 0.00 | 86 | 1016.8 |
| 20260507065051 | 60 | 311 | 1.0 | 2.0 | 0.00 | 0.00 | 0.00 | 85 | 1016.7 |
| 20260507064530 | 60 | 311 | 1.0 | 2.0 | 0.00 | 0.00 | 0.00 | 85 | 1016.7 |
| 20260507064033 | 60 | 311 | 0.0 | 0.0 | 0.00 | 0.00 | 0.00 | 84 | 1016.7 |
| 20260507063550 | 60 | 311 | 0.0 | 1.0 | 0.00 | 0.00 | 0.00 | 83 | 1016.6 |
| 20260507063053 | 60 | 311 | 0.0 | 1.0 | 0.00 | 0.00 | 0.00 | 83 | 1016.7 |
| 20260507062533 | 61 | 311 | 0.0 | 1.0 | 0.00 | 0.00 | 0.00 | 83 | 1016.7 |
| 20260507062038 | 61 | 311 | 0.0 | 0.0 | 0.00 | 0.00 | 0.00 | 83 | 1016.7 |
| 20260507061523 | 61 | 311 | 0.0 | 0.0 | 0.00 | 0.00 | 0.00 | 83 | 1016.7 |
| 20260507061048 | 61 | 311 | 0.0 | 1.0 | 0.00 | 0.00 | 0.00 | 83 | 1016.8 |
| 20260507060526 | 61 | 311 | 0.0 | 1.0 | 0.00 | 0.00 | 0.00 | 83 | 1016.8 |
| 20260507060030 | 61 | 311 | 0.0 | 2.0 | 0.00 | 0.00 | 0.00 | 82 | 1016.8 |
| 20260507055517 | 62 | 311 | 0.0 | 2.0 | 0.00 | 0.00 | 0.00 | 83 | 1016.8 |
| 20260507055021 | 62 | 311 | 0.0 | 5.0 | 0.00 | 0.00 | 0.00 | 83 | 1016.8 |
| 20260507054545 | 62 | 311 | 1.0 | 5.0 | 0.00 | 0.00 | 0.00 | 83 | 1016.8 |
| 20260507054049 | 62 | 315 | 1.0 | 5.0 | 0.00 | 0.00 | 0.00 | 83 | 1016.8 |
| 20260507053535 | 62 | 315 | 1.0 | 5.0 | 0.00 | 0.00 | 0.00 | 84 | 1016.9 |
| 20260507053034 | 62 | 319 | 1.0 | 5.0 | 0.00 | 0.00 | 0.00 | 84 | 1016.8 |
| 20260507052540 | 62 | 315 | 2.0 | 5.0 | 0.00 | 0.00 | 0.00 | 84 | 1016.8 |
| 20260507052019 | 62 | 321 | 1.0 | 6.0 | 0.00 | 0.00 | 0.00 | 84 | 1016.8 |
| 20260507051559 | 62 | 310 | 3.0 | 7.0 | 0.00 | 0.00 | 0.00 | 84 | 1016.7 |
| 20260507051046 | 62 | 323 | 2.0 | 7.0 | 0.00 | 0.00 | 0.00 | 84 | 1016.8 |
| 20260507050545 | 62 | 310 | 2.0 | 7.0 | 0.00 | 0.00 | 0.00 | 84 | 1016.7 |
| 20260507050027 | 62 | 277 | 1.0 | 4.0 | 0.00 | 0.00 | 0.00 | 84 | 1016.7 |
| 20260507045531 | 62 | 289 | 2.0 | 4.0 | 0.00 | 0.00 | 0.00 | 84 | 1016.7 |
| 20260507045032 | 62 | 290 | 1.0 | 4.0 | 0.00 | 0.00 | 0.00 | 84 | 1016.7 |
| 20260507044534 | 62 | 290 | 1.0 | 4.0 | 0.00 | 0.00 | 0.00 | 84 | 1016.8 |
| 20260507044038 | 62 | 290 | 1.0 | 5.0 | 0.00 | 0.00 | 0.00 | 84 | 1016.8 |
| 20260507043540 | 62 | 286 | 3.0 | 7.0 | 0.00 | 0.00 | 0.00 | 83 | 1016.7 |
| 20260507043038 | 62 | 311 | 3.0 | 7.0 | 0.00 | 0.00 | 0.00 | 84 | 1016.7 |
| 20260507042518 | 62 | 318 | 2.0 | 7.0 | 0.00 | 0.00 | 0.00 | 83 | 1016.7 |
| 20260507042046 | 63 | 317 | 2.0 | 6.0 | 0.00 | 0.00 | 0.00 | 83 | 1016.7 |
| 20260507041526 | 63 | 321 | 2.0 | 6.0 | 0.00 | 0.00 | 0.00 | 83 | 1016.7 |
| 20260507041040 | 63 | 304 | 2.0 | 6.0 | 0.00 | 0.00 | 0.00 | 83 | 1016.7 |
| 20260507040545 | 63 | 350 | 2.0 | 6.0 | 0.00 | 0.00 | 0.00 | 83 | 1016.7 |
| 20260507040022 | 63 | 321 | 3.0 | 6.0 | 0.00 | 0.00 | 0.00 | 83 | 1016.6 |
| 20260507035525 | 63 | 294 | 1.0 | 8.0 | 0.00 | 0.00 | 0.00 | 82 | 1016.6 |
| 20260507035026 | 63 | 309 | 4.0 | 8.0 | 0.00 | 0.00 | 0.00 | 82 | 1016.6 |
| 20260507034528 | 63 | 318 | 2.0 | 9.0 | 0.00 | 0.00 | 0.00 | 81 | 1016.5 |
| 20260507034030 | 63 | 284 | 2.0 | 9.0 | 0.00 | 0.00 | 0.00 | 82 | 1016.5 |
| 20260507033533 | 63 | 311 | 3.0 | 7.0 | 0.00 | 0.00 | 0.00 | 82 | 1016.4 |
| 20260507033039 | 63 | 331 | 3.0 | 6.0 | 0.00 | 0.00 | 0.00 | 81 | 1016.4 |
| 20260507032525 | 63 | 325 | 2.0 | 5.0 | 0.00 | 0.00 | 0.00 | 81 | 1016.4 |
| 20260507032051 | 63 | 319 | 2.0 | 7.0 | 0.00 | 0.00 | 0.00 | 81 | 1016.4 |
| 20260507031529 | 63 | 342 | 3.0 | 8.0 | 0.00 | 0.00 | 0.00 | 82 | 1016.4 |
| 20260507031039 | 63 | 311 | 3.0 | 8.0 | 0.00 | 0.00 | 0.00 | 82 | 1016.3 |
| 20260507030520 | 63 | 320 | 2.0 | 8.0 | 0.00 | 0.00 | 0.00 | 82 | 1016.3 |
| 20260507030019 | 63 | 311 | 4.0 | 9.0 | 0.00 | 0.00 | 0.00 | 82 | 1016.2 |
| 20260507025520 | 63 | 318 | 3.0 | 9.0 | 0.00 | 0.00 | 0.00 | 82 | 1016.1 |
| 20260507025025 | 63 | 321 | 2.0 | 7.0 | 0.00 | 0.00 | 0.00 | 82 | 1016.1 |
| 20260507024552 | 64 | 322 | 3.0 | 7.0 | 0.00 | 0.00 | 0.00 | 82 | 1016.1 |
| 20260507024055 | 64 | 355 | 2.0 | 7.0 | 0.00 | 0.00 | 0.00 | 82 | 1016.0 |
| 20260507023538 | 64 | 303 | 3.0 | 7.0 | 0.00 | 0.00 | 0.00 | 82 | 1016.0 |
| 20260507023041 | 64 | 327 | 2.0 | 7.0 | 0.00 | 0.00 | 0.00 | 81 | 1016.0 |
| 20260507022522 | 64 | 288 | 4.0 | 7.0 | 0.00 | 0.00 | 0.00 | 81 | 1015.9 |
| 20260507022027 | 64 | 315 | 2.0 | 9.0 | 0.00 | 0.00 | 0.00 | 81 | 1015.9 |
| 20260507021529 | 64 | 293 | 4.0 | 9.0 | 0.00 | 0.00 | 0.00 | 81 | 1015.9 |
| 20260507021034 | 65 | 313 | 5.0 | 9.0 | 0.00 | 0.00 | 0.00 | 80 | 1015.8 |
| 20260507020517 | 65 | 306 | 3.0 | 9.0 | 0.00 | 0.00 | 0.00 | 80 | 1015.8 |
| 20260507020024 | 65 | 360 | 4.0 | 9.0 | 0.00 | 0.00 | 0.00 | 79 | 1015.8 |
| 20260507015528 | 65 | 320 | 4.0 | 7.0 | 0.00 | 0.00 | 0.00 | 79 | 1015.7 |
| 20260507015029 | 66 | 285 | 3.0 | 7.0 | 0.00 | 0.00 | 0.00 | 79 | 1015.7 |
| 20260507014518 | 66 | 296 | 3.0 | 8.0 | 0.00 | 0.00 | 0.00 | 79 | 1015.7 |
| 20260507014026 | 66 | 285 | 4.0 | 8.0 | 0.00 | 0.00 | 0.00 | 79 | 1015.6 |
| 20260507013536 | 66 | 325 | 5.0 | 8.0 | 0.00 | 0.00 | 0.00 | 77 | 1015.7 |
| 20260507013019 | 67 | 307 | 4.0 | 9.0 | 0.00 | 0.00 | 0.00 | 76 | 1015.6 |
| 20260507012524 | 67 | 313 | 4.0 | 10.0 | 0.00 | 0.00 | 0.00 | 76 | 1015.6 |
| 20260507012033 | 68 | 315 | 6.0 | 10.0 | 0.00 | 0.00 | 0.00 | 74 | 1015.6 |
| 20260507011534 | 68 | 318 | 5.0 | 11.0 | 0.00 | 0.00 | 0.00 | 74 | 1015.6 |
| 20260507010542 | 69 | 274 | 5.0 | 11.0 | 0.00 | 0.00 | 0.00 | 72 | 1015.5 |
| 20260507010025 | 69 | 307 | 5.0 | 11.0 | 0.00 | 0.00 | 0.00 | 71 | 1015.5 |
| 20260507005550 | 69 | 319 | 5.0 | 10.0 | 0.00 | 0.00 | 0.00 | 69 | 1015.5 |
| 20260507005030 | 69 | 300 | 4.0 | 10.0 | 0.00 | 0.00 | 0.00 | 69 | 1015.5 |
| 20260507004536 | 69 | 300 | 4.0 | 11.0 | 0.00 | 0.00 | 0.00 | 69 | 1015.5 |
| 20260507004026 | 69 | 305 | 5.0 | 12.0 | 0.00 | 0.00 | 0.00 | 69 | 1015.5 |
| 20260507003528 | 69 | 327 | 6.0 | 12.0 | 0.00 | 0.00 | 0.00 | 69 | 1015.5 |
| 20260507003025 | 69 | 345 | 6.0 | 12.0 | 0.00 | 0.00 | 0.00 | 68 | 1015.5 |
| 20260507002525 | 70 | 338 | 6.0 | 11.0 | 0.00 | 0.00 | 0.00 | 68 | 1015.4 |
| 20260507002028 | 70 | 303 | 5.0 | 11.0 | 0.00 | 0.00 | 0.00 | 69 | 1015.4 |
| 20260507001528 | 70 | 289 | 6.0 | 11.0 | 0.00 | 0.00 | 0.00 | 69 | 1015.4 |
| 20260507001019 | 70 | 318 | 4.0 | 12.0 | 0.00 | 0.00 | 0.00 | 71 | 1015.4 |
| 20260507000521 | 70 | 296 | 6.0 | 12.0 | 0.00 | 0.00 | 0.00 | 71 | 1015.3 |
| 20260507000028 | 70 | 317 | 5.0 | 11.0 | 0.00 | 0.00 | 0.00 | 71 | 1015.3 |
| 20260506235531 | 70 | 330 | 5.0 | 11.0 | 0.00 | 0.00 | 0.00 | 72 | 1015.3 |
| 20260506235038 | 70 | 291 | 6.0 | 12.0 | 0.00 | 0.00 | 0.00 | 72 | 1015.2 |
| 20260506234522 | 70 | 282 | 6.0 | 12.0 | 0.00 | 0.00 | 0.00 | 72 | 1015.3 |
| 20260506234050 | 70 | 261 | 6.0 | 11.0 | 0.00 | 0.00 | 0.00 | 70 | 1015.3 |
| 20260506233529 | 70 | 267 | 4.0 | 11.0 | 0.00 | 0.00 | 0.00 | 72 | 1015.3 |
| 20260506233034 | 70 | 272 | 5.0 | 11.0 | 0.00 | 0.00 | 0.00 | 71 | 1015.3 |
| 20260506232523 | 70 | 338 | 5.0 | 11.0 | 0.00 | 0.00 | 0.00 | 71 | 1015.3 |
| 20260506232025 | 70 | 317 | 4.0 | 11.0 | 0.00 | 0.00 | 0.00 | 72 | 1015.4 |
| 20260506231534 | 70 | 318 | 6.0 | 12.0 | 0.00 | 0.00 | 0.00 | 71 | 1015.4 |
| 20260506231018 | 70 | 297 | 6.0 | 12.0 | 0.00 | 0.00 | 0.00 | 71 | 1015.4 |
| 20260506230524 | 69 | 290 | 5.0 | 11.0 | 0.00 | 0.00 | 0.00 | 72 | 1015.5 |
| 20260506230030 | 70 | 348 | 7.0 | 11.0 | 0.00 | 0.00 | 0.00 | 72 | 1015.5 |
| 20260506225534 | 70 | 294 | 6.0 | 11.0 | 0.00 | 0.00 | 0.00 | 70 | 1015.5 |
| 20260506225036 | 70 | 302 | 6.0 | 13.0 | 0.00 | 0.00 | 0.00 | 71 | 1015.5 |
| 20260506224518 | 70 | 319 | 5.0 | 13.0 | 0.00 | 0.00 | 0.00 | 72 | 1015.6 |
| 20260506224022 | 70 | 341 | 6.0 | 13.0 | 0.00 | 0.00 | 0.00 | 72 | 1015.6 |
| 20260506223524 | 70 | 304 | 7.0 | 14.0 | 0.00 | 0.00 | 0.00 | 71 | 1015.7 |
| 20260506223025 | 70 | 346 | 6.0 | 14.0 | 0.00 | 0.00 | 0.00 | 70 | 1015.8 |
| 20260506222527 | 70 | 275 | 7.0 | 13.0 | 0.00 | 0.00 | 0.00 | 70 | 1015.9 |
| 20260506222029 | 70 | 355 | 6.0 | 12.0 | 0.00 | 0.00 | 0.00 | 70 | 1015.9 |
| 20260506221536 | 70 | 309 | 7.0 | 12.0 | 0.00 | 0.00 | 0.00 | 69 | 1015.9 |
| 20260506221038 | 71 | 257 | 5.0 | 13.0 | 0.00 | 0.00 | 0.00 | 70 | 1015.9 |
| 20260506220521 | 70 | 311 | 7.0 | 13.0 | 0.00 | 0.00 | 0.00 | 68 | 1016.1 |
| 20260506220026 | 71 | 314 | 6.0 | 10.0 | 0.00 | 0.00 | 0.00 | 68 | 1016.2 |
| 20260506215531 | 70 | 308 | 6.0 | 12.0 | 0.00 | 0.00 | 0.00 | 69 | 1016.1 |
| 20260506215042 | 70 | 280 | 7.0 | 12.0 | 0.00 | 0.00 | 0.00 | 69 | 1016.1 |
| 20260506214523 | 70 | 289 | 6.0 | 16.0 | 0.00 | 0.00 | 0.00 | 68 | 1016.2 |
| 20260506214024 | 70 | 325 | 5.0 | 16.0 | 0.00 | 0.00 | 0.00 | 69 | 1016.2 |
| 20260506213527 | 70 | 315 | 8.0 | 16.0 | 0.00 | 0.00 | 0.00 | 69 | 1016.3 |
| 20260506213025 | 70 | 286 | 7.0 | 15.0 | 0.00 | 0.00 | 0.00 | 68 | 1016.4 |
| 20260506212529 | 70 | 267 | 6.0 | 14.0 | 0.00 | 0.00 | 0.00 | 68 | 1016.4 |
| 20260506212030 | 70 | 293 | 6.0 | 14.0 | 0.00 | 0.00 | 0.00 | 69 | 1016.5 |
| 20260506211520 | 70 | 325 | 5.0 | 11.0 | 0.00 | 0.00 | 0.00 | 68 | 1016.5 |
| 20260506211046 | 70 | 300 | 7.0 | 13.0 | 0.00 | 0.00 | 0.00 | 68 | 1016.6 |
| 20260506210527 | 70 | 275 | 6.0 | 13.0 | 0.00 | 0.00 | 0.00 | 68 | 1016.6 |
| 20260506210036 | 70 | 293 | 5.0 | 14.0 | 0.00 | 0.00 | 0.00 | 67 | 1016.6 |
| 20260506205546 | 71 | 313 | 6.0 | 14.0 | 0.00 | 0.00 | 0.00 | 67 | 1016.6 |
| 20260506205025 | 71 | 279 | 6.0 | 11.0 | 0.00 | 0.00 | 0.00 | 67 | 1016.7 |
| 20260506204529 | 71 | 343 | 7.0 | 11.0 | 0.00 | 0.00 | 0.00 | 66 | 1016.7 |
| 20260506204037 | 71 | 306 | 6.0 | 11.0 | 0.00 | 0.00 | 0.00 | 65 | 1016.7 |
| 20260506203543 | 71 | 282 | 4.0 | 12.0 | 0.00 | 0.00 | 0.00 | 67 | 1016.8 |
| 20260506203049 | 70 | 319 | 8.0 | 12.0 | 0.00 | 0.00 | 0.00 | 66 | 1016.7 |
| 20260506202531 | 70 | 322 | 6.0 | 11.0 | 0.00 | 0.00 | 0.00 | 68 | 1016.8 |
| 20260506202036 | 70 | 268 | 5.0 | 11.0 | 0.00 | 0.00 | 0.00 | 69 | 1016.8 |
| 20260506201520 | 70 | 311 | 7.0 | 11.0 | 0.00 | 0.00 | 0.00 | 68 | 1016.9 |
| 20260506201022 | 70 | 330 | 6.0 | 11.0 | 0.00 | 0.00 | 0.00 | 68 | 1017.0 |
| 20260506200545 | 71 | 340 | 6.0 | 10.0 | 0.00 | 0.00 | 0.00 | 68 | 1017.0 |
| 20260506200029 | 70 | 252 | 5.0 | 10.0 | 0.00 | 0.00 | 0.00 | 68 | 1017.0 |
| 20260506195558 | 70 | 304 | 7.0 | 10.0 | 0.00 | 0.00 | 0.00 | 67 | 1017.1 |
| 20260506195046 | 70 | 313 | 5.0 | 11.0 | 0.00 | 0.00 | 0.00 | 69 | 1017.2 |
| 20260506194529 | 70 | 298 | 6.0 | 11.0 | 0.00 | 0.00 | 0.00 | 67 | 1017.2 |
| 20260506194029 | 70 | 292 | 6.0 | 11.0 | 0.00 | 0.00 | 0.00 | 66 | 1017.3 |
| 20260506193532 | 71 | 273 | 5.0 | 11.0 | 0.00 | 0.00 | 0.00 | 66 | 1017.3 |
| 20260506193055 | 70 | 259 | 5.0 | 11.0 | 0.00 | 0.00 | 0.00 | 67 | 1017.3 |
| 20260506192521 | 70 | 338 | 5.0 | 11.0 | 0.00 | 0.00 | 0.00 | 66 | 1017.3 |
| 20260506192027 | 70 | 247 | 4.0 | 11.0 | 0.00 | 0.00 | 0.00 | 67 | 1017.4 |
| 20260506191526 | 70 | 312 | 5.0 | 11.0 | 0.00 | 0.00 | 0.00 | 67 | 1017.5 |
| 20260506191028 | 70 | 271 | 6.0 | 10.0 | 0.00 | 0.00 | 0.00 | 66 | 1017.6 |
| 20260506190532 | 70 | 298 | 5.0 | 9.0 | 0.00 | 0.00 | 0.00 | 65 | 1017.6 |
| 20260506190031 | 70 | 288 | 5.0 | 9.0 | 0.00 | 0.00 | 0.00 | 65 | 1017.5 |
| 20260506185558 | 70 | 302 | 5.0 | 9.0 | 0.00 | 0.00 | 0.00 | 66 | 1017.6 |
| 20260506185040 | 70 | 292 | 5.0 | 11.0 | 0.00 | 0.00 | 0.00 | 66 | 1017.6 |
| 20260506184522 | 70 | 233 | 6.0 | 11.0 | 0.00 | 0.00 | 0.00 | 66 | 1017.7 |
| 20260506184047 | 70 | 290 | 5.0 | 10.0 | 0.00 | 0.00 | 0.00 | 67 | 1017.7 |
| 20260506183530 | 70 | 244 | 3.0 | 8.0 | 0.00 | 0.00 | 0.00 | 66 | 1017.8 |
| 20260506183041 | 70 | 254 | 4.0 | 8.0 | 0.00 | 0.00 | 0.00 | 67 | 1017.8 |
| 20260506182534 | 70 | 275 | 4.0 | 8.0 | 0.00 | 0.00 | 0.00 | 66 | 1017.8 |
| 20260506182035 | 69 | 322 | 3.0 | 7.0 | 0.00 | 0.00 | 0.00 | 67 | 1017.8 |
| 20260506181538 | 69 | 275 | 4.0 | 8.0 | 0.00 | 0.00 | 0.00 | 67 | 1017.9 |
| 20260506181026 | 69 | 265 | 3.0 | 9.0 | 0.00 | 0.00 | 0.00 | 67 | 1017.8 |
| 20260506180525 | 69 | 257 | 4.0 | 9.0 | 0.00 | 0.00 | 0.00 | 67 | 1017.9 |
| 20260506180030 | 69 | 252 | 4.0 | 8.0 | 0.00 | 0.00 | 0.00 | 67 | 1017.9 |
| 20260506175533 | 69 | 256 | 4.0 | 8.0 | 0.00 | 0.00 | 0.00 | 66 | 1018.0 |
| 20260506175044 | 69 | 231 | 4.0 | 11.0 | 0.00 | 0.00 | 0.00 | 68 | 1018.0 |
| 20260506174526 | 69 | 318 | 4.0 | 11.0 | 0.00 | 0.00 | 0.00 | 68 | 1018.1 |
| 20260506174024 | 69 | 280 | 4.0 | 8.0 | 0.00 | 0.00 | 0.00 | 67 | 1018.1 |
| 20260506173527 | 69 | 290 | 4.0 | 8.0 | 0.00 | 0.00 | 0.00 | 68 | 1018.0 |
| 20260506173040 | 69 | 234 | 4.0 | 8.0 | 0.00 | 0.00 | 0.00 | 68 | 1018.0 |
| 20260506172545 | 69 | 254 | 4.0 | 8.0 | 0.00 | 0.00 | 0.00 | 68 | 1018.1 |